Theta_e
308 304 302 307 314 316 317 316 315 320 324 321 321 322 325 332 333 333 335 337 338 340 345 348 350 352 352 354 354 355 356 361 360 356 355 356 355 358 360 361 363 363 363 362
304 301 306 309 312 314 317 315 315 319 323 322 320 319 326 329 332 334 334 336 338 341 343 346 348 350 351 352 354 355 358 361 361 358 358 358 358 358 360 361 362 363 362 363
302 304 307 307 307 307 315 315 316 316 320 323 320 317 322 327 330 332 334 336 337 339 340 342 344 347 348 350 353 355 360 362 361 362 359 358 358 358 356 357 357 359 361 362
303 306 305 305 306 309 307 317 318 317 316 310 321 308 318 324 326 328 330 332 333 336 339 340 341 344 346 349 353 357 359 361 360 362 358 358 353 351 354 355 356 359 361 360
304 302 303 303 306 310 309 315 316 318 316 314 314 311 316 322 322 325 329 331 333 335 336 337 339 342 346 348 350 354 359 360 362 361 362 356 355 355 356 353 352 354 356 358
307 307 307 307 310 311 312 311 311 315 314 305 312 312 311 317 322 325 329 331 333 334 336 338 340 343 344 347 348 352 357 360 361 359 359 359 358 356 351 349 347 347 347 346
305 305 308 309 306 311 311 309 302 301 302 301 311 311 314 320 324 326 328 330 333 335 335 337 339 340 344 346 348 350 355 357 359 357 358 358 358 358 354 351 346 345 342 341
299 297 304 308 307 306 307 308 302 296 297 301 307 306 312 323 326 327 330 332 333 334 336 338 342 343 344 346 350 351 353 354 357 355 359 360 359 356 351 353 347 342 342 341
300 300 304 307 309 311 307 303 311 304 301 302 306 310 314 320 321 324 326 328 331 334 336 337 339 342 345 347 349 351 353 354 356 355 359 358 360 357 353 353 346 342 344 342
304 298 304 305 309 309 308 310 301 303 298 295 300 303 305 314 317 322 324 325 329 333 336 337 340 343 346 347 350 352 354 354 355 355 356 356 356 355 354 347 339 343 343 344
308 303 301 304 303 303 304 303 304 307 304 300 298 302 315 317 321 321 323 325 327 331 334 338 342 345 347 348 348 350 351 354 355 356 358 357 353 350 340 343 336 337 340 341
307 305 300 301 307 307 307 305 306 302 301 302 303 303 314 317 320 322 322 324 327 331 333 337 340 343 344 347 346 347 350 351 354 356 356 353 348 337 343 340 340 339 338 339
304 302 298 300 304 305 303 305 307 307 306 305 299 303 317 316 318 320 320 326 329 331 333 336 339 343 346 347 349 349 350 349 351 354 351 349 337 342 339 337 338 336 337 336
311 304 302 297 301 305 302 302 304 304 301 302 302 306 312 315 318 323 324 326 329 331 332 335 338 343 346 349 350 351 349 350 351 352 350 346 340 342 341 339 336 332 334 334
312 305 305 306 307 305 304 302 303 302 305 302 305 306 312 317 319 324 329 329 328 329 332 336 337 342 346 348 351 351 350 353 354 353 350 346 342 344 342 341 338 331 333 334
308 304 305 304 307 305 302 304 304 304 305 305 307 308 317 320 321 320 324 326 328 330 331 334 337 339 342 345 346 348 350 351 355 351 349 346 342 343 342 341 339 337 332 335
310 305 301 299 305 302 298 304 305 306 308 307 304 311 319 315 317 321 326 327 329 332 334 334 336 341 342 342 345 345 348 353 352 350 348 343 343 342 341 339 339 338 337 337
310 307 303 301 300 292 304 310 309 307 308 310 311 314 317 319 322 324 327 328 329 332 334 334 334 338 341 342 343 347 349 352 351 349 345 343 342 341 342 339 337 339 339 336
315 308 304 301 299 302 305 311 306 304 307 313 312 316 319 319 318 321 322 324 328 330 332 334 335 337 339 342 345 348 349 351 350 347 344 344 343 341 340 337 337 340 340 338
311 312 308 301 297 295 306 312 316 316 304 317 318 319 319 319 313 320 322 324 327 330 333 335 337 339 340 341 346 347 348 348 347 347 345 344 343 341 338 338 338 340 339 339
309 309 303 302 299 304 312 315 316 304 308 317 318 320 319 318 320 323 326 328 330 330 332 336 339 340 343 345 344 344 346 346 349 348 346 343 342 340 340 340 340 339 339 338
307 305 304 305 300 298 315 314 310 315 319 319 320 321 320 323 326 329 331 332 334 336 338 339 339 340 343 345 346 345 345 349 348 344 343 341 342 339 339 340 339 340 339 338
305 311 305 305 305 314 314 315 317 318 319 321 326 328 329 327 328 330 331 332 333 334 335 338 339 340 342 344 344 342 336 341 344 344 342 339 339 340 339 338 340 338 338 338
312 314 309 310 312 312 313 315 315 316 315 317 319 321 324 324 327 330 332 332 333 334 335 338 340 339 338 340 337 340 341 343 343 341 340 340 340 339 339 338 337 335 334 333
307 314 309 309 310 312 311 314 316 316 316 315 316 318 322 327 327 330 331 333 334 335 335 335 336 336 334 336 337 339 338 338 339 339 339 338 335 334 327 320 321 328 329 321
305 307 308 307 313 314 312 314 316 313 313 315 315 315 318 321 326 330 331 333 334 334 334 335 334 335 333 332 336 337 336 337 337 335 334 332 332 328 324 320 316 299 299 298
Wind_Speed
4 9 15 17 15 12 14 15 16 9 10 11 14 12 7 14 17 18 18 19 19 20 20 19 19 17 16 15 15 16 14 14 10 8 8 8 8 7 7 7 9 8 7 6
6 15 14 14 13 9 14 15 14 7 12 12 11 13 10 16 21 20 20 20 20 20 19 18 18 18 18 18 18 16 16 14 12 10 8 6 5 6 6 6 6 7 7 8
13 8 10 12 12 12 12 17 13 14 12 4 6 15 15 13 18 18 20 20 20 21 20 19 20 20 19 19 18 16 16 15 13 13 7 5 3 2 4 6 6 7 8 7
10 8 17 13 18 15 17 14 16 16 12 13 12 11 11 15 18 21 22 21 22 21 20 19 20 20 20 19 18 17 16 15 14 14 11 11 9 9 7 6 5 5 7 7
9 11 14 21 19 15 11 12 18 17 17 9 9 8 12 8 17 23 25 25 25 23 22 22 21 20 20 20 18 17 16 15 15 14 13 11 12 8 5 4 4 4 4 6
14 3 14 15 17 18 10 12 6 4 9 10 17 15 13 10 15 22 22 25 25 24 24 23 22 20 18 18 18 18 17 16 15 15 16 15 13 11 7 6 6 5 5 5
12 14 7 10 18 15 14 16 8 9 8 9 12 13 17 11 19 22 19 24 27 25 24 23 22 20 19 20 20 17 17 17 15 17 17 17 16 14 12 9 8 8 7 6
16 16 17 14 17 14 20 20 11 17 10 10 4 12 14 17 23 13 15 14 20 24 23 23 21 21 21 21 20 18 18 17 17 17 16 14 15 11 8 10 8 8 8 7
15 18 4 11 9 18 15 14 16 8 2 8 7 6 11 13 15 16 21 15 20 23 25 27 25 23 22 19 21 21 19 17 17 17 13 15 14 14 11 12 8 8 6 7
10 8 14 17 13 9 16 15 11 8 17 15 8 5 7 6 13 16 15 18 20 22 23 25 24 23 20 21 21 19 19 21 18 16 15 14 15 13 8 5 6 8 8 7
15 12 6 8 19 21 8 9 4 7 9 15 15 13 8 13 13 12 15 17 19 19 22 23 21 21 21 20 18 19 19 18 17 17 16 15 14 11 8 9 6 8 5 6
14 13 14 14 7 8 24 20 18 11 12 5 10 14 5 14 13 10 14 13 10 15 19 20 20 21 20 19 19 21 20 20 20 17 16 14 11 13 15 9 6 7 5 5
10 9 11 14 16 9 9 17 20 18 14 17 15 11 4 6 9 14 17 14 7 11 16 16 18 19 19 19 17 18 19 22 19 16 16 14 14 16 14 13 13 5 4 2
8 6 11 16 19 15 16 12 16 19 16 15 16 17 10 10 12 15 16 14 11 10 14 15 16 18 17 17 17 16 17 17 16 16 15 15 16 15 15 14 14 13 11 12
8 10 16 20 21 23 23 22 21 19 22 20 17 18 17 15 17 17 15 9 10 11 15 17 18 16 16 16 15 15 15 14 15 15 15 16 17 16 16 17 16 14 14 12
7 5 8 15 25 23 27 26 23 23 24 20 22 16 12 14 10 12 15 12 13 15 17 18 16 16 17 17 16 14 14 15 14 15 16 16 18 18 19 17 16 15 14 15
7 6 5 8 17 20 22 25 24 20 21 21 20 14 11 12 15 16 14 14 16 16 16 16 18 15 14 15 13 14 13 14 15 15 15 18 18 18 19 17 16 16 16 13
8 5 3 3 4 10 15 23 25 24 20 18 15 11 11 12 8 9 9 14 16 13 12 12 11 12 12 12 12 12 13 14 14 14 15 16 17 17 16 17 19 17 13 15
7 7 4 3 7 7 5 5 13 22 22 14 16 15 11 5 4 8 5 9 12 9 7 9 10 11 11 12 12 13 13 12 12 14 15 16 17 18 18 18 17 14 12 13
11 8 6 3 5 7 2 2 4 2 14 13 11 10 9 8 8 5 2 5 8 9 9 11 12 11 11 11 13 13 13 13 14 14 15 17 16 16 17 17 16 11 11 12
6 4 2 6 5 6 7 9 2 10 4 3 8 9 11 7 2 4 7 8 8 10 14 11 11 12 10 11 12 12 13 15 15 14 14 14 15 15 14 12 11 11 10 12
7 6 2 4 4 12 14 2 6 5 5 8 10 16 20 16 14 14 13 12 12 11 12 12 12 12 10 9 7 7 7 4 7 10 15 13 12 11 11 12 10 10 10 12
6 4 9 10 5 11 9 2 3 5 8 11 13 13 20 23 18 15 14 13 12 11 10 10 12 12 9 8 7 7 6 8 10 12 11 11 11 11 10 11 11 9 11 9
4 2 6 8 4 7 5 10 10 13 13 12 12 13 13 18 18 14 11 12 10 9 10 8 10 11 8 6 4 6 12 10 11 8 8 10 10 10 7 6 6 6 6 7
4 2 10 5 10 9 3 6 6 13 14 15 14 15 15 17 14 15 10 10 8 7 7 7 6 6 8 4 10 5 6 7 12 8 8 8 7 8 7 6 3 0 3 2
6 3 2 8 13 2 5 6 9 13 11 12 16 17 17 15 14 15 13 9 7 7 5 4 7 7 11 7 7 7 7 8 10 8 7 5 5 6 5 5 6 13 8 8
Wind_Direction
175 197 199 193 196 215 191 207 192 171 170 189 221 253 219 196 207 204 203 203 205 210 210 209 211 212 212 214 211 211 207 210 204 201 209 220 224 228 239 244 252 243 244 234
173 216 203 199 203 198 202 211 203 150 162 199 210 243 241 203 216 209 205 209 211 214 213 213 215 211 210 211 213 210 213 210 211 210 212 218 211 229 241 239 230 227 228 214
209 206 194 200 200 197 212 208 189 194 179 160 193 245 239 218 219 217 219 218 216 217 213 212 214 212 209 212 210 210 211 213 214 214 204 180 160 183 206 217 217 215 221 216
213 203 192 197 212 203 208 214 202 184 176 227 199 261 228 221 213 219 221 218 219 217 218 216 211 212 210 211 208 208 209 211 214 206 207 207 214 221 218 206 206 208 207 197
190 189 192 200 207 201 224 181 195 194 197 207 214 244 258 201 219 220 220 221 220 218 214 215 213 212 211 209 206 206 206 210 211 204 209 203 218 224 209 181 183 204 184 200
211 197 196 200 203 198 146 125 94 144 201 221 219 216 249 207 219 227 222 221 222 217 216 217 214 210 211 207 206 203 202 208 205 206 208 207 210 210 200 186 189 192 186 180
202 217 214 195 199 198 197 171 168 192 198 226 228 217 245 245 232 235 231 217 217 212 215 215 210 204 206 204 201 200 200 209 205 207 208 209 207 205 199 189 195 184 190 196
203 216 208 197 208 188 198 199 202 206 205 213 179 220 237 237 250 248 253 237 219 216 212 215 206 202 202 202 200 199 199 205 205 205 208 208 203 206 197 198 194 200 195 198
199 223 202 205 191 179 177 209 215 221 21 225 190 241 274 249 249 245 240 224 215 213 211 210 206 206 205 198 201 200 199 202 207 206 204 204 199 207 202 191 189 193 195 190
181 207 207 198 195 188 206 175 189 213 217 229 203 235 233 221 244 241 239 224 227 217 209 209 208 205 203 202 203 199 197 202 202 203 206 203 203 198 176 204 168 195 189 205
188 216 156 176 207 199 171 183 210 235 233 230 234 232 211 232 244 246 242 231 232 218 210 205 204 201 203 204 202 202 202 200 200 201 199 200 197 175 139 168 199 153 182 183
201 207 219 215 205 240 222 214 208 214 191 225 254 224 185 232 240 243 251 250 249 219 207 204 200 200 202 203 203 204 203 202 202 199 196 192 164 149 166 187 188 151 153 167
165 211 213 230 238 201 225 226 223 229 245 213 229 221 197 230 242 248 254 263 244 212 202 196 195 198 199 201 203 205 206 211 207 197 194 184 169 170 168 168 146 143 151 173
177 177 217 224 231 233 227 226 217 221 225 222 228 237 210 237 244 257 244 248 240 210 200 197 194 200 199 200 201 205 212 211 205 199 193 182 176 172 170 163 147 166 146 209
207 213 215 227 228 215 222 228 218 217 235 231 226 219 221 224 235 236 240 255 218 201 200 199 199 198 195 197 199 203 206 200 197 188 186 184 180 175 169 173 170 174 187 211
195 224 218 243 230 224 221 220 225 222 226 230 237 221 218 230 237 243 246 230 224 210 207 207 206 197 196 195 195 196 198 196 188 183 189 179 179 175 184 182 184 182 200 210
193 197 177 242 231 218 231 223 220 226 223 210 218 222 213 227 228 229 229 228 228 218 211 202 201 193 191 192 183 188 186 180 179 185 181 181 185 187 189 185 185 198 213 220
169 141 217 292 155 213 236 224 218 213 214 216 243 243 224 238 255 259 239 238 233 228 228 206 198 191 181 177 177 171 174 176 178 179 180 189 190 194 190 190 196 203 214 221
221 134 161 226 242 271 234 169 213 214 234 225 234 233 243 243 205 245 233 232 229 205 183 192 186 175 171 168 161 160 163 165 171 178 187 194 195 192 187 197 200 204 210 229
100 102 143 110 257 252 187 56 357 298 226 186 213 226 211 147 203 206 313 194 168 162 150 152 147 146 147 147 153 148 154 164 182 183 189 189 197 198 197 199 203 205 212 232
181 112 144 122 251 274 3 324 235 187 185 193 199 203 142 148 12 77 93 90 96 114 116 118 121 112 110 130 142 153 166 186 189 184 179 186 184 198 201 199 201 196 197 220
160 154 83 106 206 256 0 260 243 26 72 107 133 126 109 107 97 86 81 77 75 83 93 96 86 85 86 103 131 148 176 149 160 171 171 168 179 190 193 191 203 212 209 216
172 192 134 130 312 326 320 353 63 73 72 67 86 94 110 102 90 86 84 75 72 65 73 86 96 98 86 97 108 133 140 151 154 195 158 152 178 182 179 189 203 203 204 217
59 115 102 119 9 322 347 73 80 78 73 68 59 60 72 89 97 84 78 78 71 61 61 64 92 89 89 77 61 143 140 167 165 151 153 169 172 179 183 184 196 201 206 213
4 265 126 79 105 292 56 81 65 85 82 72 64 63 70 81 72 89 73 65 74 79 81 80 87 106 99 118 91 110 142 167 116 137 163 155 145 141 114 91 49 293 93 329
340 351 160 160 160 240 185 136 104 95 80 74 74 61 50 67 81 78 71 54 48 56 50 92 112 102 75 99 121 149 157 112 121 143 151 149 143 129 136 136 111 49 28 23